Location: St. Louis
(38.6270°N, 90.1994°W)
Time: 08:18:46
(UTC-05:00)

COSMOS 2251 DEB - Pass Details

Date: 09 July 2022
Orbit: 573 x 629 km, 74.1° (Epoch: 16 August)

Event Time Altitude Azimuth Distance (km) Brightness Sun altitude
Rises 04:25:27 0° 150° (SSE) 2,790 ? -13.2°
Reaches altitude 10° 04:28:49 10° 121° (ESE) 1,910 ? -12.7°
Maximum altitude 04:30:38 13° 95° (E) 1,756 ? -12.5°
Drops below altitude 10° 04:32:29 10° 70° (ENE) 1,931 ? -12.2°
Sets 04:35:55 0° 41° (NE) 2,856 ? -11.7°
